Location: Ehrke Reservoir
(40.0279°N, 99.6641°W)
Time: 22:05:14
(UTC+00:00)

Cosmos 1125 Rocket - Pass Details

Date: 20 January 2020
Orbit: 757 x 780 km, 74.0° (Epoch: 16 February)

Event Time Altitude Azimuth Distance (km) Brightness Sun altitude
Rises 00:16:54 0° 190° (S) 3,198 7.2 -7.0°
Reaches altitude 10° 00:19:15 10° 188° (S) 2,277 6.4 -7.4°
Maximum altitude 00:24:22 68° 106° (ESE) 816 3.5 -8.3°
Drops below altitude 10° 00:29:32 10° 24° (NNE) 2,297 5.6 -9.2°
Sets 00:31:56 0° 22° (NNE) 3,229 6.3 -9.7°
